Bookmark and Share
Track history (hours):
 

Belle Chasse

More information available from US FCC via Universal Licensing System and Coast Guard Vessel Documentation Center.

Last reported at 2014-Apr-22 21:29 UTC. Time now 2014-Apr-24 22:13 UTC.
Position N 29°44' W 095°13'.

Length 26 m; draft 3 m.

Type: Towing. MMSI: 367520550.

NotesDate/timePositionNaut miles runAvg speedWind from/ knotsBaromVisibWave heightAir tempDewpointWater temp
2014-Apr-22 21:29N 29°44' W 095°13'7 6.5
2014-Apr-22 20:26N 29°45' W 095°06'1 0.3
2014-Apr-22 17:07N 29°46' W 095°07'0 0.1
2014-Apr-22 16:28N 29°46' W 095°07'1 0.4
2014-Apr-22 13:26N 29°45' W 095°06'1 0.6
2014-Apr-22 12:29N 29°45' W 095°07'0 0.0
2014-Apr-22 11:29N 29°45' W 095°07'0 0.0
2014-Apr-22 10:29N 29°45' W 095°07'0 0.0
2014-Apr-22 09:29N 29°45' W 095°07'0 0.0
2014-Apr-22 08:29N 29°45' W 095°07'0 0.0
2014-Apr-22 05:17N 29°45' W 095°07'0 0.0
2014-Apr-22 04:32N 29°45' W 095°07'0 0.0
2014-Apr-22 03:29N 29°45' W 095°07'0 0.0
2014-Apr-22 02:29N 29°45' W 095°07'0 0.0
2014-Apr-22 01:32N 29°45' W 095°07'0 0.0
2014-Apr-22 00:32N 29°45' W 095°07'0 0.0
2014-Apr-21 23:32N 29°45' W 095°07'0 0.0
2014-Apr-21 22:29N 29°45' W 095°07'0 0.0
2014-Apr-21 20:29N 29°45' W 095°07'0 0.0
2014-Apr-21 19:29N 29°45' W 095°07'0 0.0
2014-Apr-21 18:29N 29°45' W 095°07'0 0.0
2014-Apr-21 17:29N 29°45' W 095°07'1 1.3
2014-Apr-21 16:24N 29°46' W 095°06'0 0.3
2014-Apr-21 15:27N 29°46' W 095°06'0 0.4
2014-Apr-21 14:28N 29°46' W 095°06'1 1.5
2014-Apr-21 13:29N 29°45' W 095°07'0 0.0
2014-Apr-21 12:29N 29°45' W 095°07'0 0.0
2014-Apr-21 07:32N 29°45' W 095°07'0 0.0
2014-Apr-21 05:23N 29°45' W 095°07'0 0.0
2014-Apr-21 04:29N 29°45' W 095°07'0 0.0
2014-Apr-21 03:32N 29°45' W 095°07'0 0.0
2014-Apr-21 01:23N 29°45' W 095°07'0 0.0
2014-Apr-21 00:32N 29°45' W 095°07'0 0.0
2014-Apr-20 23:29N 29°45' W 095°07'0 0.0
2014-Apr-20 22:29N 29°45' W 095°07'0 0.0
2014-Apr-20 21:32N 29°45' W 095°07'0 0.0
2014-Apr-20 20:29N 29°45' W 095°07'0 0.0
2014-Apr-20 19:29N 29°45' W 095°07'0 0.0
2014-Apr-20 18:32N 29°45' W 095°07'0 0.0
2014-Apr-20 17:29N 29°45' W 095°07'0 0.0
2014-Apr-20 16:32N 29°45' W 095°07'0 0.0
2014-Apr-20 15:32N 29°45' W 095°07'0 0.0
2014-Apr-20 14:29N 29°45' W 095°07'2 2.3
2014-Apr-20 13:31N 29°45' W 095°04'5 4.8
2014-Apr-20 12:34N 29°42' W 095°00'5 5.3
2014-Apr-20 11:34N 29°37' W 094°57'7 7.1
2014-Apr-20 10:32N 29°31' W 094°53'7 7.0
2014-Apr-20 09:33N 29°25' W 094°50'172 4.1
2014-Apr-18 15:32N 29°44' W 091°33'7 6.7
2014-Apr-18 14:25N 29°40' W 091°26'6 6.6
2014-Apr-18 13:33N 29°38' W 091°20'7 7.0
2014-Apr-18 12:33N 29°42' W 091°13'3 3.1
2014-Apr-18 11:33N 29°44' W 091°11'5 4.6
2014-Apr-18 10:34N 29°49' W 091°10'0 0.0
2014-Apr-18 09:31N 29°49' W 091°10'0 0.0
2014-Apr-18 08:31N 29°49' W 091°10'0 0.0
2014-Apr-18 07:33N 29°49' W 091°10'0 0.0
2014-Apr-18 06:31N 29°49' W 091°10'0 0.0
2014-Apr-18 05:33N 29°49' W 091°10'0 0.0
2014-Apr-18 04:15N 29°49' W 091°10'4 5.2
2014-Apr-18 03:32N 29°52' W 091°13'21 0.5
2014-Apr-16 10:25N 30°06' W 090°55'4 3.9
2014-Apr-16 09:29N 30°04' W 090°52'5 4.2
2014-Apr-16 08:17N 29°59' W 090°49'3 4.5
2014-Apr-16 07:33N 30°01' W 090°46'5 4.8
2014-Apr-16 06:33N 30°02' W 090°41'4 4.4
2014-Apr-16 05:34N 30°03' W 090°36'5 4.8
2014-Apr-16 04:34N 30°03' W 090°30'4 4.2
2014-Apr-16 03:33N 29°60' W 090°27'5 4.7
2014-Apr-16 02:32N 29°57' W 090°23'6 5.4
2014-Apr-16 01:28N 29°58' W 090°16'  

Dump ship's entire track history

sailing weather and tide predictions

Belle Chasse — WDG2912 — position and weather